Regional Weather Roundup
Issued by NWS

Home | Current Version | Previous Version | Graphics & Text | Print | Product List | Glossary On
Versions: 1 2 3 4 5 6 7 8 9 10 11 12 13 14 15 16 17 18 19 20 21 22 23 24 25 26 27
000
ASUS45 KTFX 041110
RWRMT
MONTANA REGIONAL WEATHER ROUNDUP
NATIONAL WEATHER SERVICE GREAT FALLS MT
400 AM MST SUN DEC 04 2016

NOTE: "FAIR" INDICATES FEW OR NO CLOUDS BELOW 12000 FEET WITH NO
SIGNIFICANT WEATHER AND/OR OBSTRUCTIONS TO VISIBILITY.

MTZ001>007-043-041200-
WEST OF THE DIVIDE

CITY           SKY/WX    TMP DP  RH WIND       PRES   REMARKS
KALISPELL      CLOUDY    36  27  69 S9        29.79F WCI  29
MISSOULA       CLOUDY    30  30 100 E6        29.89F FOG     WCI  24
BUTTE          CLOUDY    29  15  56 SW5G17    29.90F
MULLAN PASS    SNOW      24  22  91 VRB7G22   29.75F VSB 1/2 WCI  16
ANACONDA         N/A     30  18  59 S9G18     29.88F WCI  22
DEER LODGE       N/A     34  19  55 S7        29.89F WCI  28
EUREKA           N/A     36  30  80 SE15      29.75F WCI  26
HAMILTON         N/A     36  25  64 SE14      29.92F WCI  27
LIBBY            N/A     34  32  93 CALM      29.78F
RONAN            N/A     35  27  73 CALM      29.87F
$$

MTZ008-052>055-041200-
SOUTHWEST MONTANA

CITY           SKY/WX    TMP DP  RH WIND       PRES   REMARKS
BOZEMAN        CLOUDY    32  17  54 CALM      29.89F
DILLON         CLOUDY    22  13  68 SW6       29.93F WCI  14
W YELLOWSTONE  LGT SNOW  21  19  93 SW14G21   29.98F WCI   8
ENNIS          MOCLDY    27  18  69 S21       29.97F WCI  13
THREE FORKS      N/A     33  33 100 S8        29.90F WCI  26
TWIN BRIDGES     N/A     24  11  57 CALM      29.94F
$$

MTZ009-010-012-014-046-048-049-054-041200-
EAST SLOPES AND CENTRAL MONTANA

CITY           SKY/WX    TMP DP  RH WIND       PRES   REMARKS
CUT BANK       PTCLDY    27  20  75 SW12      29.71F WCI  17
GREAT FALLS    CLOUDY    32  21  64 SW17      29.78F WCI  21
MALMSTROM AFB  CLOUDY    32  23  68 SW16G23   29.78F WCI  21
HELENA         CLOUDY    33  17  51 SW3       29.86F
AUGUSTA        MOCLDY    27  16  63 NW5       29.75F
BOWMANS CRNR     N/A     28  21  74 S10       29.76F WCI  19
CHOTEAU          N/A     30  18  59 VRB5G13   29.76F
CONRAD           N/A     23  19  85 S6        29.78F WCI  16
FAIRFIELD      MOCLDY    31  20  66 S12       29.75F WCI  21
POWER          MOCLDY    28  20  71 SW13G18   29.75F WCI  18
RAYNESFORD     MOCLDY    35  19  53 SW17G31   29.79F WCI  24
ULM            MOCLDY    34  22  59 SW15      29.80F WCI  25
$$

MTZ011-013-016-021-045-047-050-051-041200-
NORTH CENTRAL MONTANA

CITY           SKY/WX    TMP DP  RH WIND       PRES   REMARKS
HAVRE          CLOUDY    33  21  61 SW13      29.76F WCI  24
LEWISTOWN      CLEAR     30  19  63 SW20      29.79F WCI  17
N BAR RANCH      N/A     32  10  40 VRB7      29.80F WCI  26
CHINOOK          N/A     30  21  69 W3        29.76F
DENTON           N/A     28  19  69 SW17G29   29.75F WCI  16
GEYSER         MOCLDY    29  19  66 W9        29.78F WCI  20
GRASS RANGE      N/A     30  20  68 W18       29.76F WCI  18
JUDITH GAP       N/A     30  17  59 W30G38    29.80F WCI  14
ROY              N/A     34  18  52 MISG      29.76F
STANFORD         N/A     33  17  53 W21G29    29.78F WCI  21
WINIFRED         N/A     29  19  66 MISG      29.77F
$$

MTZ017>020-022>027-061-062-041200-
NORTHEAST MONTANA

CITY           SKY/WX    TMP DP  RH WIND       PRES   REMARKS
GLASGOW        CLEAR     24  20  84 W7        29.79F WCI  16
JORDAN           N/A     21  16  81 NW7       29.82F WCI  12
SIDNEY         CLEAR     25  21  85 SW6       29.80F WCI  18
WOLF POINT     CLEAR     22  19  89 W6        29.81F WCI  14
PLENTYWOOD       N/A     21  21 100 W3        29.75F
POPLAR           N/A     23  19  86 CALM      29.80F
SCOBEY           N/A     18   9  68 CALM      29.75F
$$

MTZ028>42-056>058-041200-
SOUTHCENTRAL AND SOUTHEAST MONTANA

CITY           SKY/WX    TMP DP  RH WIND       PRES   REMARKS
BAKER          CLEAR     23  16  74 W13       29.84F WCI  11
BILLINGS       CLOUDY    31  14  49 SW13      29.86F WCI  21
LIVINGSTON     CLOUDY    34  15  46 SW21      29.86F WCI  22
MILES CITY     CLOUDY    30  19  63 W8        29.85F WCI  22
BIG TIMBER     MOCLDY    34  16  47 W24G31    29.87F WCI  21
EKALAKA          N/A     29  19  66 W7        29.83F WCI  22
FORSYTH          N/A     34  18  51 SW6       29.86F WCI  29
HARLOWTON      MOCLDY    29  17  59 W17       29.82F WCI  17
LAUREL           N/A     29   8  41 SW3       29.86F
ROUNDUP          N/A     29  14  53 SE3       29.77F
$$

REGIONAL REPORTS...DAKOTAS

CITY           SKY/WX    TMP DP  RH WIND       PRES   REMARKS
WILLISTON      CLEAR     30  26  85 W9        29.76F WCI  22
MINOT          CLOUDY    29  25  85 W20       29.71S WCI  16
DICKINSON      CLOUDY    25  20  81 W17       29.76R WCI  12
BEACH            N/A     27  21  80 W13       29.83S WCI  16
CROSBY         CLOUDY    28  28 100 NW9       29.75F WCI  20
TIOGA          LGT SNOW  28  28 100 NW14      29.74S WCI  17
WATFORD CITY   LGT SNOW  32  32 100 W10       29.77F WCI  24
BISMARCK       CLOUDY    33  29  85 W16       29.76S WCI  23
GRAND FORKS    LGT SNOW  34  31  88 S15       29.74F FOG     WCI  24
FARGO          LGT SNOW  35  32  88 S15       29.78F FOG     WCI  25
BUFFALO SD       N/A     28  20  71 W13       29.76F WCI  17
RAPID CITY     CLEAR     20  15  81 NW6       29.89F WCI  12
$$

REGIONAL REPORTS...WYOMING/IDAHO/WASHINGTON

CITY           SKY/WX    TMP DP  RH WIND       PRES   REMARKS
GILLETTE       CLOUDY    25  17  72 SW9       29.89F WCI  15
SHERIDAN       CLOUDY    28  14  55 W8        29.89F WCI  20
BUFFALO WY     CLOUDY    30   9  41 SW3       29.89F
CODY           CLOUDY    33  14  45 CALM      29.89F
YELLOWSTONE LA   N/A     20  17  88 CALM      29.95F
IDAHO FALLS    CLOUDY    30  23  75 SW17      30.07F WCI  18
SALMON         CLOUDY    27  18  69 CALM      30.01F
BOISE          CLOUDY    40  28  62 E8        30.08F
SPOKANE        CLOUDY    37  32  82 SW23G33   29.83F WCI  26
$$

REGIONAL REPORTS...ALBERTA

CITY           SKY/WX    TMP DP  RH WIND       PRES   REMARKS
EDMONTON       CLEAR     18  12  79 W7        29.64F WCI   8
CALGARY        MOCLDY    19  14  79 N6        29.63F WCI  11
LETHBRIDGE     CLOUDY    30  23  74 SW16      29.65F WCI  19
MEDICINE HAT   CLEAR     23  18  80 S8        29.69F WCI  14
WATERTON GATE    N/A     30  27  86 SW15G21     N/A  WCI  19
CARDSTON         N/A     32  23  69 SW10        N/A  WCI  24
MILK RIVER       N/A     27  21  80 SE7         N/A  WCI  19
ONEFOUR          N/A     21  18  86 E8          N/A  WCI  12
$$

REGIONAL REPORTS...SASKATCHEWAN

CITY           SKY/WX    TMP DP  RH WIND       PRES   REMARKS
SWIFT CURRENT  MOCLDY    19  16  86 SW14      29.67F WCI   6
REGINA         CLOUDY    25  25 100 W10       29.71F WCI  15
SASKATOON      PTCLDY    16  14  93 W3        29.69F
CYPRESS HILLS    N/A     28  18  64 W9          N/A  WCI  20
VAL MARIE        N/A     19  14  79 SW3         N/A
ROCKGLEN         N/A     18  16  93 SW8         N/A  WCI   7
ASSINIBOIA       N/A     19  12  73 SW10        N/A  WCI   8
$$




USA.gov is the U.S. government's official web portal to all federal, state and local government web resources and services.